Location: Gleizolles
(44.4833°N, 6.7667°E)
Time: 08:18:09
(UTC+00:00)

MOZHAYETS 4 - Visible Passes

Search period start: 27 November 2022 00:00
Search period end: 07 December 2022 00:00
Orbit: 659 x 678 km, 98.2° (Epoch: 26 November)

Date Brightness Start Highest point End Pass type
(mag) Time Alt. Az. Time Alt. Az. Time Alt. Az.
29 Nov 10.7 16:50:58 10° NW 16:51:30 10° WNW 16:52:03 10° WNW visible
02 Dec 10.7 16:50:30 10° NW 16:51:14 10° WNW 16:51:58 10° WNW visible
05 Dec 10.6 16:50:05 10° NW 16:50:58 10° WNW 16:51:51 10° WNW visible
